Regional Weather Roundup
Issued by NWS

Home | Current Version | Previous Version | Text Only | Print | Product List | Glossary On
Versions: 1 2 3 4 5 6 7 8 9 10 11 12 13 14 15 16 17 18 19 20 21 22 23 24 25 26 27 28 29 30 31 32 33 34 35 36 37 38 39 40 41 42 43 44 45 46 47 48 49 50
000
ASUS43 KTOP 030208
RWRKS

WEATHER ROUNDUP FOR KANSAS
NATIONAL WEATHER SERVICE GOODLAND KS
900 PM CDT THU JUL 02 2015

NOTE:  "FAIR" INDICATES FEW OR NO CLOUDS BELOW 12,000 FEET WITH NO
SIGNIFICANT WEATHER AND/OR OBSTRUCTIONS TO VISIBILITY.

KSZ001>006-013>018-027>032-041>047-030300-
NORTHWEST KANSAS

CITY           SKY/WX    TMP DP  RH WIND       PRES   REMARKS
GOODLAND       CLEAR     75  57  53 N8        30.05R
HAYS           CLOUDY    82  63  51 CALM      29.94R
HILL CITY      LGT RAIN  81  62  52 NE8       29.96R
RUSSELL        CLEAR     81  66  60 NW3       29.92R
$$

KSZ061>065-074>080-084>089-030300-
SOUTHWEST KANSAS

CITY           SKY/WX    TMP DP  RH WIND       PRES   REMARKS
DODGE CITY     CLEAR     74  61  63 SE7       29.99R
ELKHART          N/A     77  60  55 E17         N/A
GARDEN CITY    CLEAR     75  69  81 S6        30.00R
GREAT BEND     CLEAR     79  66  65 S5        29.95R
LIBERAL        MOCLDY    73  64  73 SE9       30.04R
PRATT          CLEAR     73  66  78 N3        29.97R
$$

KSZ066>073-081>083-090>101-030300-
SOUTHEAST KANSAS

CITY           SKY/WX    TMP DP  RH WIND       PRES   REMARKS
CHANUTE        PTCLDY    74  72  93 SE6       29.90R
COFFEYVILLE    PTCLDY    78  68  71 W3        29.90R
HUTCHINSON     CLEAR     76  69  79 CALM      29.92R
MEDICINE LODGE   N/A     80  67  64 CALM      29.93R
NEWTON         CLEAR     73  64  73 SW6       29.94R
PARSONS        MOCLDY    76  73  91 CALM      29.92R
WICHITA INTL   PTCLDY    77  67  71 N3        29.92R
WICHITA JABRA  CLEAR     74  68  81 W3        29.92R
WICHITA MCCONL CLEAR     76  65  69 NW3       29.92R
WINFIELD       PTCLDY    78  68  71 NE5       29.93R
$$

KSZ007>012-019>026-033>040-048>060-102>105-030300-
NORTHEAST KANSAS

CITY           SKY/WX    TMP DP  RH WIND       PRES   REMARKS
CONCORDIA      PTCLDY    69  66  90 SE3       29.89F
EMPORIA        PTCLDY    75  70  84 NE3       29.90R
LAWRENCE       MOCLDY    71  67  87 NE5       29.89S FOG
MANHATTAN      LGT RAIN  71  69  93 CALM      29.88R
MARYSVILLE     CLOUDY    72  68  88 E6        29.89R
OLATHE IND     MOCLDY    71  67  87 E9        29.89F
OLATHE EXE     MOCLDY    69  66  90 E7        29.89S
SALINA         CLEAR     80  69  69 SW6       29.88R
TOPEKA BILLARD CLOUDY    73  69  87 NE6       29.90R
TOPEKA FORBES  MOCLDY    74  68  81 E8        29.89R HAZE
$$


USA.gov is the U.S. government's official web portal to all federal, state and local government web resources and services.